Location: Cochrane
(49.0650°N, 81.0299°W)
Time: 18:29:47
(UTC-04:00)

ISS - Visible Passes

Search period start: 12 September 2024 00:00
Search period end: 22 September 2024 00:00
Orbit: 414 x 425 km, 51.6° (Epoch: 12 September)

Date Brightness Start Highest point End Pass type
(mag) Time Alt. Az. Time Alt. Az. Time Alt. Az.
12 Sep -2.8 20:50:41 10° SSW 20:53:37 28° SE 20:54:51 22° ESE visible
12 Sep -1.3 22:26:50 10° WSW 22:27:51 18° WSW 22:27:51 18° WSW visible
13 Sep -3.9 21:39:18 10° WSW 21:42:34 81° SSW 21:42:34 81° SSW visible
14 Sep -3.7 20:51:44 10° SW 20:55:02 60° SSE 20:57:02 22° E visible
14 Sep -1.4 22:28:35 10° W 22:29:59 22° WNW 22:29:59 22° WNW visible
15 Sep -3.2 20:04:11 10° SW 20:07:22 41° SSE 20:10:33 10° ENE visible
15 Sep -3.5 21:40:45 10° W 21:44:05 64° NNW 21:44:13 63° N visible
16 Sep -3.7 20:52:51 10° WSW 20:56:12 78° NNW 20:58:17 21° ENE visible
16 Sep -1.2 22:29:53 10° WNW 22:31:12 21° WNW 22:31:12 21° WNW visible
17 Sep -3.8 20:04:53 10° WSW 20:08:14 82° SSE 20:11:37 10° ENE visible
17 Sep -3.2 21:41:52 10° W 21:45:05 52° N 21:45:05 52° N visible
18 Sep -3.3 20:53:43 10° W 20:57:02 56° N 20:58:50 24° ENE visible
18 Sep -1.0 22:30:42 10° WNW 22:31:45 19° WNW 22:31:45 19° WNW visible
19 Sep -3.4 20:05:28 10° W 20:08:48 64° NNW 20:12:09 10° ENE visible
19 Sep -3.0 21:42:30 10° WNW 21:45:21 50° NNW 21:45:21 50° NNW visible
20 Sep -3.2 20:54:11 10° WNW 20:57:29 53° N 20:58:52 30° ENE visible
20 Sep -0.8 22:31:01 10° WNW 22:31:45 16° WNW 22:31:45 16° WNW visible
21 Sep -3.2 20:05:44 10° W 20:09:02 52° N 20:12:16 10° ENE visible
21 Sep -2.8 21:42:38 10° WNW 21:45:09 47° WNW 21:45:09 47° WNW visible
